Simultaneous Nadir Overpasses (SNOs) Predictions

Prediction of SNOs between GOES-17 and METOP-C Satellite Orbit:

Table of predicted SNOs for the next 14.0 days since TLE Epoch: 4/4/2025
Index Date Time (GOES-17) GOES-17 Lat,Lon METOP-C Lat,Lon Distance(km) Time Diff (sec)
1 04/05/2025 04:25:04 -0.03,-104.38 0.23,-103.28 125.44 80
2 04/06/2025 16:43:54 0.03,-104.41 0.81,-107.84 390.39 80
3 04/07/2025 16:20:34 0.03,-104.41 -0.35,-102.85 178.88 80
4 04/09/2025 04:39:33 -0.02,-104.38 -0.70,-107.44 348.44 80
5 04/10/2025 04:21:32 -0.02,-104.38 0.40,-102.44 221.23 80
6 04/11/2025 16:40:23 0.02,-104.42 0.62,-107.00 293.64 80
7 04/12/2025 16:17:02 0.02,-104.43 -0.49,-102.00 276.12 80
8 04/14/2025 04:36:00 -0.02,-104.39 -0.53,-106.59 250.83 80
9 04/15/2025 04:18:00 -0.02,-104.39 0.59,-101.59 318.84 80
10 04/16/2025 16:36:50 0.02,-104.43 0.43,-106.15 196.34 80
11 04/17/2025 16:13:30 0.02,-104.43 -0.70,-101.16 373.11 80
